2017,06,29,00,00,00,150.1,,,,,,,,,,,,,,
2017,06,29,00,01,00,,,,,,,,,,,,,,,
2017,06,29,00,02,00,145.5,,,,,,,,,,,,,,
2017,06,29,00,03,00,175.6,,,,,,,,,,,,,,
2017,06,29,00,04,00,187.9,,,,,,,,,,,,,,
2017,06,29,00,05,00,132.3,,,,,,,,,,,,,,
2017,06,29,00,06,00,155.7,,,,,,,,,,,,,,
2017,06,29,00,07,00,163.1,,,,,,,,,,,,,,
2017,06,29,00,08,00,171.6,,,,,,,,,,,,,,
2017,06,29,00,09,00,149.4,,,,,,,,,,,,,,
2017,06,29,00,10,00,140.9,,,,,,,,,,,,,,
2017,06,29,00,11,00,161.0,,,,,,,,,,,,,,
2017,06,29,00,12,00,130.6,,,,,,,,,,,,,,
2017,06,29,00,13,00,134.6,,,,,,,,,,,,,,
2017,06,29,00,14,00,124.7,,,,,,,,,,,,,,
2017,06,29,00,15,00,180.7,,,,,,,,,,,,,,
2017,06,29,00,16,00,170.2,,,,,,,,,,,,,,
2017,06,29,00,17,00,162.9,,,,,,,,,,,,,,
2017,06,29,00,18,00,207.2,,,,,,,,,,,,,,
2017,06,29,00,19,00,194.0,,,,,,,,,,,,,,
2017,06,29,00,20,00,178.4,,,,,,,,,,,,,,
2017,06,29,00,21,00,170.1,,,,,,,,,,,,,,
2017,06,29,00,22,00,173.1,,,,,,,,,,,,,,
2017,06,29,00,23,00,195.7,,,,,,,,,,,,,,
2017,06,29,00,24,00,192.7,,,,,,,,,,,,,,
2017,06,29,00,25,00,184.0,,,,,,,,,,,,,,
2017,06,29,00,26,00,200.3,,,,,,,,,,,,,,
2017,06,29,00,27,00,188.5,,,,,,,,,,,,,,
2017,06,29,00,28,00,175.8,,,,,,,,,,,,,,
2017,06,29,00,29,00,181.1,,,,,,,,,,,,,,
2017,06,29,00,30,00,197.2,,,,,,,,,,,,,,
2017,06,29,00,31,00,184.5,,,,,,,,,,,,,,
2017,06,29,00,32,00,183.8,,,,,,,,,,,,,,
2017,06,29,00,33,00,176.2,,,,,,,,,,,,,,
2017,06,29,00,34,00,152.0,,,,,,,,,,,,,,
2017,06,29,00,35,00,148.8,,,,,,,,,,,,,,
2017,06,29,00,36,00,157.4,,,,,,,,,,,,,,
2017,06,29,00,37,00,152.4,,,,,,,,,,,,,,
2017,06,29,00,38,00,157.2,,,,,,,,,,,,,,
2017,06,29,00,39,00,175.3,,,,,,,,,,,,,,
2017,06,29,00,40,00,192.9,,,,,,,,,,,,,,
2017,06,29,00,41,00,228.7,,,,,,,,,,,,,,
2017,06,29,00,42,00,211.9,,,,,,,,,,,,,,
2017,06,29,00,43,00,184.0,,,,,,,,,,,,,,
2017,06,29,00,44,00,202.1,,,,,,,,,,,,,,
2017,06,29,00,45,00,202.6,,,,,,,,,,,,,,
2017,06,29,00,46,00,226.6,,,,,,,,,,,,,,
2017,06,29,00,47,00,250.8,,,,,,,,,,,,,,
2017,06,29,00,48,00,249.9,,,,,,,,,,,,,,
2017,06,29,00,49,00,244.5,,,,,,,,,,,,,,
2017,06,29,00,50,00,200.6,,,,,,,,,,,,,,
2017,06,29,00,51,00,193.6,,,,,,,,,,,,,,
2017,06,29,00,52,00,243.3,,,,,,,,,,,,,,
2017,06,29,00,53,00,220.2,,,,,,,,,,,,,,
2017,06,29,00,54,00,206.1,,,,,,,,,,,,,,
2017,06,29,00,55,00,211.5,,,,,,,,,,,,,,
2017,06,29,00,56,00,211.0,,,,,,,,,,,,,,
2017,06,29,00,57,00,246.4,,,,,,,,,,,,,,
2017,06,29,00,58,00,257.1,,,,,,,,,,,,,,
2017,06,29,00,59,00,253.3,,,,,,,,,,,,,,
2017,06,29,01,00,00,279.4,,,,,,,,,,,,,,
2017,06,29,01,01,00,248.7,,,,,,,,,,,,,,
2017,06,29,01,02,00,240.1,,,,,,,,,,,,,,
2017,06,29,01,03,00,210.6,,,,,,,,,,,,,,
2017,06,29,01,04,00,270.0,,,,,,,,,,,,,,
2017,06,29,01,05,00,273.3,,,,,,,,,,,,,,
2017,06,29,01,06,00,219.6,,,,,,,,,,,,,,
2017,06,29,01,07,00,235.3,,,,,,,,,,,,,,
2017,06,29,01,08,00,276.4,,,,,,,,,,,,,,
2017,06,29,01,09,00,268.0,,,,,,,,,,,,,,
2017,06,29,01,10,00,246.0,,,,,,,,,,,,,,
2017,06,29,01,11,00,233.4,,,,,,,,,,,,,,
2017,06,29,01,12,00,234.1,,,,,,,,,,,,,,
2017,06,29,01,13,00,205.0,,,,,,,,,,,,,,
2017,06,29,01,14,00,222.7,,,,,,,,,,,,,,
2017,06,29,01,15,00,229.2,,,,,,,,,,,,,,
2017,06,29,01,16,00,212.8,,,,,,,,,,,,,,
2017,06,29,01,17,00,206.4,,,,,,,,,,,,,,
2017,06,29,01,18,00,194.9,,,,,,,,,,,,,,
2017,06,29,01,19,00,187.3,,,,,,,,,,,,,,
2017,06,29,01,20,00,170.9,,,,,,,,,,,,,,
2017,06,29,01,21,00,164.3,,,,,,,,,,,,,,
2017,06,29,01,22,00,167.2,,,,,,,,,,,,,,
2017,06,29,01,23,00,182.2,,,,,,,,,,,,,,
2017,06,29,01,24,00,182.3,,,,,,,,,,,,,,
2017,06,29,01,25,00,168.4,,,,,,,,,,,,,,
2017,06,29,01,26,00,166.7,,,,,,,,,,,,,,
2017,06,29,01,27,00,172.2,,,,,,,,,,,,,,
2017,06,29,01,28,00,170.6,,,,,,,,,,,,,,
2017,06,29,01,29,00,182.1,,,,,,,,,,,,,,
2017,06,29,01,30,00,193.1,,,,,,,,,,,,,,
2017,06,29,01,31,00,203.8,,,,,,,,,,,,,,
2017,06,29,01,32,00,205.9,,,,,,,,,,,,,,
2017,06,29,01,33,00,203.1,,,,,,,,,,,,,,
2017,06,29,01,34,00,181.9,,,,,,,,,,,,,,
2017,06,29,01,35,00,182.7,,,,,,,,,,,,,,
2017,06,29,01,36,00,204.2,,,,,,,,,,,,,,
2017,06,29,01,37,00,196.8,,,,,,,,,,,,,,
2017,06,29,01,38,00,213.2,,,,,,,,,,,,,,
2017,06,29,01,39,00,235.5,,,,,,,,,,,,,,
2017,06,29,01,40,00,199.1,,,,,,,,,,,,,,
2017,06,29,01,41,00,224.6,,,,,,,,,,,,,,
2017,06,29,01,42,00,250.7,,,,,,,,,,,,,,
2017,06,29,01,43,00,252.1,,,,,,,,,,,,,,
2017,06,29,01,44,00,279.9,,,,,,,,,,,,,,
2017,06,29,01,45,00,251.2,,,,,,,,,,,,,,
2017,06,29,01,46,00,223.1,,,,,,,,,,,,,,
2017,06,29,01,47,00,246.3,,,,,,,,,,,,,,
2017,06,29,01,48,00,245.3,,,,,,,,,,,,,,
2017,06,29,01,49,00,241.0,,,,,,,,,,,,,,
2017,06,29,01,50,00,236.0,,,,,,,,,,,,,,
2017,06,29,01,51,00,245.7,,,,,,,,,,,,,,
2017,06,29,01,52,00,239.1,,,,,,,,,,,,,,
2017,06,29,01,53,00,217.6,,,,,,,,,,,,,,
2017,06,29,01,54,00,216.1,,,,,,,,,,,,,,
2017,06,29,01,55,00,235.0,,,,,,,,,,,,,,
2017,06,29,01,56,00,215.5,,,,,,,,,,,,,,
2017,06,29,01,57,00,205.5,,,,,,,,,,,,,,
2017,06,29,01,58,00,208.9,,,,,,,,,,,,,,
2017,06,29,01,59,00,223.0,,,,,,,,,,,,,,
2017,06,29,02,00,00,208.4,,,,,,,,,,,,,,
2017,06,29,02,01,00,210.8,,,,,,,,,,,,,,
2017,06,29,02,02,00,211.6,,,,,,,,,,,,,,
2017,06,29,02,03,00,232.1,,,,,,,,,,,,,,
2017,06,29,02,04,00,212.7,,,,,,,,,,,,,,
2017,06,29,02,05,00,206.4,,,,,,,,,,,,,,
2017,06,29,02,06,00,199.3,,,,,,,,,,,,,,
2017,06,29,02,07,00,198.6,,,,,,,,,,,,,,
2017,06,29,02,08,00,195.5,,,,,,,,,,,,,,
2017,06,29,02,09,00,184.9,,,,,,,,,,,,,,
2017,06,29,02,10,00,184.6,,,,,,,,,,,,,,
2017,06,29,02,11,00,194.6,,,,,,,,,,,,,,
2017,06,29,02,12,00,193.2,,,,,,,,,,,,,,
2017,06,29,02,13,00,189.2,,,,,,,,,,,,,,
2017,06,29,02,14,00,172.5,,,,,,,,,,,,,,
2017,06,29,02,15,00,159.4,,,,,,,,,,,,,,
2017,06,29,02,16,00,157.8,,,,,,,,,,,,,,
2017,06,29,02,17,00,161.4,,,,,,,,,,,,,,
2017,06,29,02,18,00,156.5,,,,,,,,,,,,,,
2017,06,29,02,19,00,158.2,,,,,,,,,,,,,,
2017,06,29,02,20,00,151.4,,,,,,,,,,,,,,
2017,06,29,02,21,00,139.8,,,,,,,,,,,,,,
2017,06,29,02,22,00,123.8,,,,,,,,,,,,,,
2017,06,29,02,23,00,124.1,,,,,,,,,,,,,,
2017,06,29,02,24,00,129.8,,,,,,,,,,,,,,
2017,06,29,02,25,00,146.9,,,,,,,,,,,,,,
2017,06,29,02,26,00,163.3,,,,,,,,,,,,,,
2017,06,29,02,27,00,172.6,,,,,,,,,,,,,,
2017,06,29,02,28,00,190.4,,,,,,,,,,,,,,
2017,06,29,02,29,00,193.4,,,,,,,,,,,,,,
2017,06,29,02,30,00,195.3,,,,,,,,,,,,,,
2017,06,29,02,31,00,196.9,,,,,,,,,,,,,,
2017,06,29,02,32,00,189.6,,,,,,,,,,,,,,
2017,06,29,02,33,00,203.1,,,,,,,,,,,,,,
2017,06,29,02,34,00,205.0,,,,,,,,,,,,,,
2017,06,29,02,35,00,195.3,,,,,,,,,,,,,,
2017,06,29,02,36,00,191.7,,,,,,,,,,,,,,
2017,06,29,02,37,00,191.4,,,,,,,,,,,,,,
2017,06,29,02,38,00,191.9,,,,,,,,,,,,,,
2017,06,29,02,39,00,191.7,,,,,,,,,,,,,,
2017,06,29,02,40,00,203.3,,,,,,,,,,,,,,
2017,06,29,02,41,00,213.5,,,,,,,,,,,,,,
2017,06,29,02,42,00,216.1,,,,,,,,,,,,,,
2017,06,29,02,43,00,206.4,,,,,,,,,,,,,,
2017,06,29,02,44,00,200.2,,,,,,,,,,,,,,
2017,06,29,02,45,00,203.4,,,,,,,,,,,,,,
2017,06,29,02,46,00,202.4,,,,,,,,,,,,,,
2017,06,29,02,47,00,210.6,,,,,,,,,,,,,,
2017,06,29,02,48,00,228.2,,,,,,,,,,,,,,
2017,06,29,02,49,00,231.5,,,,,,,,,,,,,,
2017,06,29,02,50,00,242.6,,,,,,,,,,,,,,
2017,06,29,02,51,00,250.3,,,,,,,,,,,,,,
2017,06,29,02,52,00,238.9,,,,,,,,,,,,,,
2017,06,29,02,53,00,245.6,,,,,,,,,,,,,,
2017,06,29,02,54,00,249.0,,,,,,,,,,,,,,
2017,06,29,02,55,00,249.9,,,,,,,,,,,,,,
2017,06,29,02,56,00,254.0,,,,,,,,,,,,,,
2017,06,29,02,57,00,280.3,,,,,,,,,,,,,,
2017,06,29,02,58,00,259.3,,,,,,,,,,,,,,
2017,06,29,02,59,00,260.2,,,,,,,,,,,,,,
2017,06,29,03,00,00,281.1,,,,,,,,,,,,,,
2017,06,29,03,01,00,262.2,,,,,,,,,,,,,,
2017,06,29,03,02,00,286.9,,,,,,,,,,,,,,
2017,06,29,03,03,00,258.1,,,,,,,,,,,,,,
2017,06,29,03,04,00,283.2,,,,,,,,,,,,,,
2017,06,29,03,05,00,270.9,,,,,,,,,,,,,,
2017,06,29,03,06,00,300.6,,,,,,,,,,,,,,
2017,06,29,03,07,00,307.6,,,,,,,,,,,,,,
2017,06,29,03,08,00,289.2,,,,,,,,,,,,,,
2017,06,29,03,09,00,299.7,,,,,,,,,,,,,,
2017,06,29,03,10,00,315.5,,,,,,,,,,,,,,
2017,06,29,03,11,00,284.7,,,,,,,,,,,,,,
2017,06,29,03,12,00,280.2,,,,,,,,,,,,,,
2017,06,29,03,13,00,273.3,,,,,,,,,,,,,,
2017,06,29,03,14,00,293.8,,,,,,,,,,,,,,
2017,06,29,03,15,00,285.9,,,,,,,,,,,,,,
2017,06,29,03,16,00,264.6,,,,,,,,,,,,,,
2017,06,29,03,17,00,277.4,,,,,,,,,,,,,,
2017,06,29,03,18,00,293.9,,,,,,,,,,,,,,
2017,06,29,03,19,00,312.6,,,,,,,,,,,,,,
2017,06,29,03,20,00,317.8,,,,,,,,,,,,,,
2017,06,29,03,21,00,320.2,,,,,,,,,,,,,,
2017,06,29,03,22,00,315.6,,,,,,,,,,,,,,
2017,06,29,03,23,00,326.2,,,,,,,,,,,,,,
2017,06,29,03,24,00,302.6,,,,,,,,,,,,,,
2017,06,29,03,25,00,304.5,,,,,,,,,,,,,,
2017,06,29,03,26,00,269.0,,,,,,,,,,,,,,
2017,06,29,03,27,00,291.3,,,,,,,,,,,,,,
2017,06,29,03,28,00,303.4,,,,,,,,,,,,,,
2017,06,29,03,29,00,291.4,,,,,,,,,,,,,,
2017,06,29,03,30,00,251.8,,,,,,,,,,,,,,
2017,06,29,03,31,00,238.3,,,,,,,,,,,,,,
2017,06,29,03,32,00,228.6,,,,,,,,,,,,,,
2017,06,29,03,33,00,316.8,,,,,,,,,,,,,,
2017,06,29,03,34,00,304.6,,,,,,,,,,,,,,
2017,06,29,03,35,00,345.6,,,,,,,,,,,,,,
2017,06,29,03,36,00,448.5,,,,,,,,,,,,,,
2017,06,29,03,37,00,546.8,,,,,,,,,,,,,,
2017,06,29,03,38,00,503.7,,,,,,,,,,,,,,
2017,06,29,03,39,00,476.9,,,,,,,,,,,,,,
2017,06,29,03,40,00,517.1,,,,,,,,,,,,,,
2017,06,29,03,41,00,570.6,,,,,,,,,,,,,,
2017,06,29,03,42,00,545.3,,,,,,,,,,,,,,
2017,06,29,03,43,00,826.9,,,,,,,,,,,,,,
2017,06,29,03,44,00,751.0,,,,,,,,,,,,,,
2017,06,29,03,45,00,653.3,,,,,,,,,,,,,,
2017,06,29,03,46,00,585.5,,,,,,,,,,,,,,
2017,06,29,03,47,00,1290.2,,,,,,,,,,,,,,
2017,06,29,03,48,00,2190.7,,,,,,,,,,,,,,
2017,06,29,03,49,00,1888.7,,,,,,,,,,,,,,
2017,06,29,03,50,00,1366.9,,,,,,,,,,,,,,
2017,06,29,03,51,00,343.6,,,,,,,,,,,,,,
2017,06,29,03,52,00,361.0,,,,,,,,,,,,,,
2017,06,29,03,53,00,726.1,,,,,,,,,,,,,,
2017,06,29,03,54,00,989.9,,,,,,,,,,,,,,
2017,06,29,03,55,00,986.4,,,,,,,,,,,,,,
2017,06,29,03,56,00,889.2,,,,,,,,,,,,,,
2017,06,29,03,57,00,746.7,,,,,,,,,,,,,,
2017,06,29,03,58,00,615.9,,,,,,,,,,,,,,
2017,06,29,03,59,00,517.7,,,,,,,,,,,,,,
2017,06,29,04,00,00,430.9,,,,,,,,,,,,,,
2017,06,29,04,01,00,356.6,,,,,,,,,,,,,,
2017,06,29,04,02,00,275.4,,,,,,,,,,,,,,
2017,06,29,04,03,00,244.2,,,,,,,,,,,,,,
2017,06,29,04,04,00,241.3,,,,,,,,,,,,,,
2017,06,29,04,05,00,230.0,,,,,,,,,,,,,,
2017,06,29,04,06,00,242.4,,,,,,,,,,,,,,
2017,06,29,04,07,00,240.2,,,,,,,,,,,,,,
2017,06,29,04,08,00,217.7,,,,,,,,,,,,,,
2017,06,29,04,09,00,227.9,,,,,,,,,,,,,,
2017,06,29,04,10,00,186.1,,,,,,,,,,,,,,
2017,06,29,04,11,00,211.0,,,,,,,,,,,,,,
2017,06,29,04,12,00,228.0,,,,,,,,,,,,,,
2017,06,29,04,13,00,213.2,,,,,,,,,,,,,,
2017,06,29,04,14,00,211.7,,,,,,,,,,,,,,
2017,06,29,04,15,00,208.2,,,,,,,,,,,,,,
2017,06,29,04,16,00,202.8,,,,,,,,,,,,,,
2017,06,29,04,17,00,200.3,,,,,,,,,,,,,,
2017,06,29,04,18,00,204.1,,,,,,,,,,,,,,
2017,06,29,04,19,00,197.6,,,,,,,,,,,,,,
2017,06,29,04,20,00,198.8,,,,,,,,,,,,,,
2017,06,29,04,21,00,210.5,,,,,,,,,,,,,,
2017,06,29,04,22,00,201.7,,,,,,,,,,,,,,
2017,06,29,04,23,00,161.3,,,,,,,,,,,,,,
2017,06,29,04,24,00,186.9,,,,,,,,,,,,,,
2017,06,29,04,25,00,177.1,,,,,,,,,,,,,,
2017,06,29,04,26,00,135.7,,,,,,,,,,,,,,
2017,06,29,04,27,00,189.0,,,,,,,,,,,,,,
2017,06,29,04,28,00,187.0,,,,,,,,,,,,,,
2017,06,29,04,29,00,200.6,,,,,,,,,,,,,,
2017,06,29,04,30,00,198.4,,,,,,,,,,,,,,
2017,06,29,04,31,00,196.7,,,,,,,,,,,,,,
2017,06,29,04,32,00,204.4,,,,,,,,,,,,,,
2017,06,29,04,33,00,232.8,,,,,,,,,,,,,,
2017,06,29,04,34,00,225.2,,,,,,,,,,,,,,
2017,06,29,04,35,00,223.1,,,,,,,,,,,,,,
2017,06,29,04,36,00,226.3,,,,,,,,,,,,,,
2017,06,29,04,37,00,209.5,,,,,,,,,,,,,,
2017,06,29,04,38,00,209.9,,,,,,,,,,,,,,
2017,06,29,04,39,00,210.1,,,,,,,,,,,,,,
2017,06,29,04,40,00,205.9,,,,,,,,,,,,,,
2017,06,29,04,41,00,200.5,,,,,,,,,,,,,,
2017,06,29,04,42,00,199.1,,,,,,,,,,,,,,
2017,06,29,04,43,00,191.3,,,,,,,,,,,,,,
2017,06,29,04,44,00,192.7,,,,,,,,,,,,,,
2017,06,29,04,45,00,188.9,,,,,,,,,,,,,,
2017,06,29,04,46,00,189.1,,,,,,,,,,,,,,
2017,06,29,04,47,00,193.8,,,,,,,,,,,,,,
2017,06,29,04,48,00,190.6,,,,,,,,,,,,,,
2017,06,29,04,49,00,186.4,,,,,,,,,,,,,,
2017,06,29,04,50,00,184.9,,,,,,,,,,,,,,
2017,06,29,04,51,00,191.2,,,,,,,,,,,,,,
2017,06,29,04,52,00,199.3,,,,,,,,,,,,,,
2017,06,29,04,53,00,197.1,,,,,,,,,,,,,,
2017,06,29,04,54,00,193.7,,,,,,,,,,,,,,
2017,06,29,04,55,00,199.1,,,,,,,,,,,,,,
2017,06,29,04,56,00,196.5,,,,,,,,,,,,,,
2017,06,29,04,57,00,205.3,,,,,,,,,,,,,,
2017,06,29,04,58,00,200.6,,,,,,,,,,,,,,
2017,06,29,04,59,00,202.4,,,,,,,,,,,,,,
2017,06,29,05,00,00,202.3,,,,,,,,,,,,,,
2017,06,29,05,01,00,199.5,,,,,,,,,,,,,,
2017,06,29,05,02,00,209.3,,,,,,,,,,,,,,
2017,06,29,05,03,00,209.3,,,,,,,,,,,,,,
2017,06,29,05,04,00,202.9,,,,,,,,,,,,,,
2017,06,29,05,05,00,205.9,,,,,,,,,,,,,,
2017,06,29,05,06,00,205.1,,,,,,,,,,,,,,
2017,06,29,05,07,00,205.9,,,,,,,,,,,,,,
2017,06,29,05,08,00,208.8,,,,,,,,,,,,,,
2017,06,29,05,09,00,213.3,,,,,,,,,,,,,,
2017,06,29,05,10,00,211.5,,,,,,,,,,,,,,
2017,06,29,05,11,00,204.5,,,,,,,,,,,,,,
2017,06,29,05,12,00,203.6,,,,,,,,,,,,,,
2017,06,29,05,13,00,209.0,,,,,,,,,,,,,,
2017,06,29,05,14,00,207.1,,,,,,,,,,,,,,
2017,06,29,05,15,00,206.7,,,,,,,,,,,,,,
2017,06,29,05,16,00,199.4,,,,,,,,,,,,,,
2017,06,29,05,17,00,197.1,,,,,,,,,,,,,,
2017,06,29,05,18,00,197.5,,,,,,,,,,,,,,
2017,06,29,05,19,00,206.4,,,,,,,,,,,,,,
2017,06,29,05,20,00,213.2,,,,,,,,,,,,,,
2017,06,29,05,21,00,208.4,,,,,,,,,,,,,,
2017,06,29,05,22,00,222.4,,,,,,,,,,,,,,
2017,06,29,05,23,00,226.8,,,,,,,,,,,,,,
2017,06,29,05,24,00,221.9,,,,,,,,,,,,,,
2017,06,29,05,25,00,219.4,,,,,,,,,,,,,,
2017,06,29,05,26,00,225.2,,,,,,,,,,,,,,
2017,06,29,05,27,00,228.4,,,,,,,,,,,,,,
2017,06,29,05,28,00,218.2,,,,,,,,,,,,,,
2017,06,29,05,29,00,211.5,,,,,,,,,,,,,,
2017,06,29,05,30,00,184.1,,,,,,,,,,,,,,
2017,06,29,05,31,00,75.1,,,,,,,,,,,,,,
2017,06,29,05,32,00,-83.0,,,,,,,,,,,,,,
2017,06,29,05,33,00,-341.3,,,,,,,,,,,,,,
2017,06,29,05,34,00,-575.8,,,,,,,,,,,,,,
2017,06,29,05,35,00,-685.6,,,,,,,,,,,,,,
2017,06,29,05,36,00,-694.7,,,,,,,,,,,,,,
2017,06,29,05,37,00,-627.1,,,,,,,,,,,,,,
2017,06,29,05,38,00,-535.8,,,,,,,,,,,,,,
2017,06,29,05,39,00,-413.0,,,,,,,,,,,,,,
2017,06,29,05,40,00,-263.6,,,,,,,,,,,,,,
2017,06,29,05,41,00,-175.0,,,,,,,,,,,,,,
2017,06,29,05,42,00,-85.7,,,,,,,,,,,,,,
2017,06,29,05,43,00,-2.7,,,,,,,,,,,,,,
2017,06,29,05,44,00,57.9,,,,,,,,,,,,,,
2017,06,29,05,45,00,109.4,,,,,,,,,,,,,,
2017,06,29,05,46,00,160.0,,,,,,,,,,,,,,
2017,06,29,05,47,00,203.9,,,,,,,,,,,,,,
2017,06,29,05,48,00,237.4,,,,,,,,,,,,,,
2017,06,29,05,49,00,244.4,,,,,,,,,,,,,,
2017,06,29,05,50,00,243.7,,,,,,,,,,,,,,
2017,06,29,05,51,00,243.2,,,,,,,,,,,,,,
2017,06,29,05,52,00,216.1,,,,,,,,,,,,,,
2017,06,29,05,53,00,209.0,,,,,,,,,,,,,,
2017,06,29,05,54,00,198.9,,,,,,,,,,,,,,
2017,06,29,05,55,00,179.7,,,,,,,,,,,,,,
2017,06,29,05,56,00,150.3,,,,,,,,,,,,,,
2017,06,29,05,57,00,117.3,,,,,,,,,,,,,,
2017,06,29,05,58,00,83.2,,,,,,,,,,,,,,
2017,06,29,05,59,00,47.2,,,,,,,,,,,,,,
2017,06,29,06,00,00,4.7,,,,,,,,,,,,,,
2017,06,29,06,01,00,-32.5,,,,,,,,,,,,,,
2017,06,29,06,02,00,66.7,,,,,,,,,,,,,,
2017,06,29,06,03,00,-49.4,,,,,,,,,,,,,,
2017,06,29,06,04,00,-159.8,,,,,,,,,,,,,,
2017,06,29,06,05,00,-423.5,,,,,,,,,,,,,,
2017,06,29,06,06,00,-643.5,,,,,,,,,,,,,,
2017,06,29,06,07,00,-682.2,,,,,,,,,,,,,,
2017,06,29,06,08,00,-601.1,,,,,,,,,,,,,,
2017,06,29,06,09,00,-636.5,,,,,,,,,,,,,,
2017,06,29,06,10,00,-454.3,,,,,,,,,,,,,,
2017,06,29,06,11,00,-75.3,,,,,,,,,,,,,,
2017,06,29,06,12,00,-63.7,,,,,,,,,,,,,,
2017,06,29,06,13,00,-694.6,,,,,,,,,,,,,,
2017,06,29,06,14,00,44.5,,,,,,,,,,,,,,
2017,06,29,06,15,00,193.3,,,,,,,,,,,,,,
2017,06,29,06,16,00,90.8,,,,,,,,,,,,,,
2017,06,29,06,17,00,207.2,,,,,,,,,,,,,,
2017,06,29,06,18,00,235.2,,,,,,,,,,,,,,
2017,06,29,06,19,00,75.7,,,,,,,,,,,,,,
2017,06,29,06,20,00,191.2,,,,,,,,,,,,,,
2017,06,29,06,21,00,309.1,,,,,,,,,,,,,,
2017,06,29,06,22,00,302.7,,,,,,,,,,,,,,
2017,06,29,06,23,00,179.5,,,,,,,,,,,,,,
2017,06,29,06,24,00,111.3,,,,,,,,,,,,,,
2017,06,29,06,25,00,40.4,,,,,,,,,,,,,,
2017,06,29,06,26,00,-20.6,,,,,,,,,,,,,,
2017,06,29,06,27,00,-88.3,,,,,,,,,,,,,,
2017,06,29,06,28,00,-273.9,,,,,,,,,,,,,,
2017,06,29,06,29,00,-468.5,,,,,,,,,,,,,,
2017,06,29,06,30,00,-979.1,,,,,,,,,,,,,,
2017,06,29,06,31,00,-1901.4,,,,,,,,,,,,,,
2017,06,29,06,32,00,-2997.2,,,,,,,,,,,,,,
2017,06,29,06,33,00,-2144.0,,,,,,,,,,,,,,
2017,06,29,06,34,00,-1659.3,,,,,,,,,,,,,,
2017,06,29,06,35,00,-945.9,,,,,,,,,,,,,,
2017,06,29,06,36,00,-483.6,,,,,,,,,,,,,,
2017,06,29,06,37,00,-337.5,,,,,,,,,,,,,,
2017,06,29,06,38,00,-220.8,,,,,,,,,,,,,,
2017,06,29,06,39,00,-125.2,,,,,,,,,,,,,,
2017,06,29,06,40,00,-106.4,,,,,,,,,,,,,,
2017,06,29,06,41,00,-68.8,,,,,,,,,,,,,,
2017,06,29,06,42,00,-13.0,,,,,,,,,,,,,,
2017,06,29,06,43,00,6.1,,,,,,,,,,,,,,
2017,06,29,06,44,00,89.8,,,,,,,,,,,,,,
2017,06,29,06,45,00,-7.1,,,,,,,,,,,,,,
2017,06,29,06,46,00,-204.1,,,,,,,,,,,,,,
2017,06,29,06,47,00,-412.6,,,,,,,,,,,,,,
2017,06,29,06,48,00,-191.0,,,,,,,,,,,,,,
2017,06,29,06,49,00,-347.1,,,,,,,,,,,,,,
2017,06,29,06,50,00,-3213.3,,,,,,,,,,,,,,
2017,06,29,06,51,00,-896.7,,,,,,,,,,,,,,
2017,06,29,06,52,00,-8480.3,,,,,,,,,,,,,,
2017,06,29,06,53,00,-12453.7,,,,,,,,,,,,,,
2017,06,29,06,54,00,-3809.4,,,,,,,,,,,,,,
2017,06,29,06,55,00,5217.7,,,,,,,,,,,,,,
2017,06,29,06,56,00,6816.1,,,,,,,,,,,,,,
2017,06,29,06,57,00,8659.9,,,,,,,,,,,,,,
2017,06,29,06,58,00,7667.9,,,,,,,,,,,,,,
2017,06,29,06,59,00,-266.7,,,,,,,,,,,,,,
2017,06,29,07,00,00,-4758.1,,,,,,,,,,,,,,
2017,06,29,07,01,00,-2911.0,,,,,,,,,,,,,,
2017,06,29,07,02,00,-1582.6,,,,,,,,,,,,,,
2017,06,29,07,03,00,-1053.8,,,,,,,,,,,,,,
2017,06,29,07,04,00,-780.1,,,,,,,,,,,,,,
2017,06,29,07,05,00,-554.7,,,,,,,,,,,,,,
2017,06,29,07,06,00,-407.1,,,,,,,,,,,,,,
2017,06,29,07,07,00,-371.7,,,,,,,,,,,,,,
2017,06,29,07,08,00,-357.3,,,,,,,,,,,,,,
2017,06,29,07,09,00,-335.4,,,,,,,,,,,,,,
2017,06,29,07,10,00,-365.5,,,,,,,,,,,,,,
2017,06,29,07,11,00,-439.5,,,,,,,,,,,,,,
2017,06,29,07,12,00,-458.5,,,,,,,,,,,,,,
2017,06,29,07,13,00,-459.2,,,,,,,,,,,,,,
2017,06,29,07,14,00,-516.9,,,,,,,,,,,,,,
2017,06,29,07,15,00,-606.1,,,,,,,,,,,,,,
2017,06,29,07,16,00,-953.4,,,,,,,,,,,,,,
2017,06,29,07,17,00,-2556.7,,,,,,,,,,,,,,
2017,06,29,07,18,00,-8245.0,,,,,,,,,,,,,,
2017,06,29,07,19,00,-17906.9,,,,,,,,,,,,,,
2017,06,29,07,20,00,-8033.6,,,,,,,,,,,,,,
2017,06,29,07,21,00,-1387.1,,,,,,,,,,,,,,
2017,06,29,07,22,00,-1326.7,,,,,,,,,,,,,,
2017,06,29,07,23,00,-423.2,,,,,,,,,,,,,,
2017,06,29,07,24,00,242.9,,,,,,,,,,,,,,
2017,06,29,07,25,00,119.7,,,,,,,,,,,,,,
2017,06,29,07,26,00,-554.0,,,,,,,,,,,,,,
2017,06,29,07,27,00,670.9,,,,,,,,,,,,,,
2017,06,29,07,28,00,3210.2,,,,,,,,,,,,,,
2017,06,29,07,29,00,5209.1,,,,,,,,,,,,,,
2017,06,29,07,30,00,7579.9,,,,,,,,,,,,,,
2017,06,29,07,31,00,9602.1,,,,,,,,,,,,,,
2017,06,29,07,32,00,8190.7,,,,,,,,,,,,,,
2017,06,29,07,33,00,5501.3,,,,,,,,,,,,,,
2017,06,29,07,34,00,1444.3,,,,,,,,,,,,,,
2017,06,29,07,35,00,-2897.6,,,,,,,,,,,,,,
2017,06,29,07,36,00,-6688.6,,,,,,,,,,,,,,
2017,06,29,07,37,00,-10832.3,,,,,,,,,,,,,,
2017,06,29,07,38,00,-12995.3,,,,,,,,,,,,,,
2017,06,29,07,39,00,-12562.7,,,,,,,,,,,,,,
2017,06,29,07,40,00,-10883.5,,,,,,,,,,,,,,
2017,06,29,07,41,00,-10833.7,,,,,,,,,,,,,,
2017,06,29,07,42,00,-11906.9,,,,,,,,,,,,,,
2017,06,29,07,43,00,-15177.5,,,,,,,,,,,,,,
2017,06,29,07,44,00,-13703.5,,,,,,,,,,,,,,
2017,06,29,07,45,00,-2521.9,,,,,,,,,,,,,,
2017,06,29,07,46,00,10950.2,,,,,,,,,,,,,,
2017,06,29,07,47,00,8351.3,,,,,,,,,,,,,,
2017,06,29,07,48,00,724.2,,,,,,,,,,,,,,
2017,06,29,07,49,00,-436.1,,,,,,,,,,,,,,
2017,06,29,07,50,00,-871.5,,,,,,,,,,,,,,
2017,06,29,07,51,00,-106.8,,,,,,,,,,,,,,
2017,06,29,07,52,00,139.5,,,,,,,,,,,,,,
2017,06,29,07,53,00,147.7,,,,,,,,,,,,,,
2017,06,29,07,54,00,179.2,,,,,,,,,,,,,,
2017,06,29,07,55,00,211.2,,,,,,,,,,,,,,
2017,06,29,07,56,00,193.2,,,,,,,,,,,,,,
2017,06,29,07,57,00,169.6,,,,,,,,,,,,,,
2017,06,29,07,58,00,142.4,,,,,,,,,,,,,,
2017,06,29,07,59,00,44.7,,,,,,,,,,,,,,
2017,06,29,08,00,00,827.8,,,,,,,,,,,,,,
2017,06,29,08,01,00,1525.7,,,,,,,,,,,,,,
2017,06,29,08,02,00,-441.9,,,,,,,,,,,,,,
2017,06,29,08,03,00,-728.8,,,,,,,,,,,,,,
2017,06,29,08,04,00,-405.3,,,,,,,,,,,,,,
2017,06,29,08,05,00,-122.0,,,,,,,,,,,,,,
2017,06,29,08,06,00,7.9,,,,,,,,,,,,,,
2017,06,29,08,07,00,64.8,,,,,,,,,,,,,,
2017,06,29,08,08,00,104.6,,,,,,,,,,,,,,
2017,06,29,08,09,00,114.9,,,,,,,,,,,,,,
2017,06,29,08,10,00,125.5,,,,,,,,,,,,,,
2017,06,29,08,11,00,119.9,,,,,,,,,,,,,,
2017,06,29,08,12,00,118.8,,,,,,,,,,,,,,
2017,06,29,08,13,00,116.2,,,,,,,,,,,,,,
2017,06,29,08,14,00,125.5,,,,,,,,,,,,,,
2017,06,29,08,15,00,131.2,,,,,,,,,,,,,,
2017,06,29,08,16,00,159.4,,,,,,,,,,,,,,
2017,06,29,08,17,00,202.6,,,,,,,,,,,,,,
2017,06,29,08,18,00,200.2,,,,,,,,,,,,,,
2017,06,29,08,19,00,225.1,,,,,,,,,,,,,,
2017,06,29,08,20,00,223.7,,,,,,,,,,,,,,
2017,06,29,08,21,00,233.7,,,,,,,,,,,,,,
2017,06,29,08,22,00,247.0,,,,,,,,,,,,,,
2017,06,29,08,23,00,203.8,,,,,,,,,,,,,,
2017,06,29,08,24,00,206.5,,,,,,,,,,,,,,
2017,06,29,08,25,00,240.6,,,,,,,,,,,,,,
2017,06,29,08,26,00,277.4,,,,,,,,,,,,,,
2017,06,29,08,27,00,228.5,,,,,,,,,,,,,,
2017,06,29,08,28,00,151.3,,,,,,,,,,,,,,
2017,06,29,08,29,00,172.7,,,,,,,,,,,,,,
2017,06,29,08,30,00,165.3,,,,,,,,,,,,,,
2017,06,29,08,31,00,161.8,,,,,,,,,,,,,,
2017,06,29,08,32,00,180.7,,,,,,,,,,,,,,
2017,06,29,08,33,00,189.3,,,,,,,,,,,,,,
2017,06,29,08,34,00,184.1,,,,,,,,,,,,,,
2017,06,29,08,35,00,231.7,,,,,,,,,,,,,,
2017,06,29,08,36,00,215.4,,,,,,,,,,,,,,
2017,06,29,08,37,00,146.2,,,,,,,,,,,,,,
2017,06,29,08,38,00,131.3,,,,,,,,,,,,,,
2017,06,29,08,39,00,195.2,,,,,,,,,,,,,,
2017,06,29,08,40,00,195.5,,,,,,,,,,,,,,
2017,06,29,08,41,00,250.8,,,,,,,,,,,,,,
2017,06,29,08,42,00,224.7,,,,,,,,,,,,,,
2017,06,29,08,43,00,212.9,,,,,,,,,,,,,,
2017,06,29,08,44,00,188.1,,,,,,,,,,,,,,
2017,06,29,08,45,00,206.9,,,,,,,,,,,,,,
2017,06,29,08,46,00,199.4,,,,,,,,,,,,,,
2017,06,29,08,47,00,226.7,,,,,,,,,,,,,,
2017,06,29,08,48,00,247.2,,,,,,,,,,,,,,
2017,06,29,08,49,00,219.3,,,,,,,,,,,,,,
2017,06,29,08,50,00,187.6,,,,,,,,,,,,,,
2017,06,29,08,51,00,157.9,,,,,,,,,,,,,,
2017,06,29,08,52,00,157.0,,,,,,,,,,,,,,
2017,06,29,08,53,00,128.4,,,,,,,,,,,,,,
2017,06,29,08,54,00,129.7,,,,,,,,,,,,,,
2017,06,29,08,55,00,136.8,,,,,,,,,,,,,,
2017,06,29,08,56,00,120.5,,,,,,,,,,,,,,
2017,06,29,08,57,00,92.6,,,,,,,,,,,,,,
2017,06,29,08,58,00,73.5,,,,,,,,,,,,,,
2017,06,29,08,59,00,67.1,,,,,,,,,,,,,,
2017,06,29,09,00,00,75.0,,,,,,,,,,,,,,
2017,06,29,09,01,00,63.4,,,,,,,,,,,,,,
2017,06,29,09,02,00,64.9,,,,,,,,,,,,,,
2017,06,29,09,03,00,49.5,,,,,,,,,,,,,,
2017,06,29,09,04,00,44.5,,,,,,,,,,,,,,
2017,06,29,09,05,00,103.0,,,,,,,,,,,,,,
2017,06,29,09,06,00,117.8,,,,,,,,,,,,,,
2017,06,29,09,07,00,138.8,,,,,,,,,,,,,,
2017,06,29,09,08,00,123.3,,,,,,,,,,,,,,
2017,06,29,09,09,00,126.6,,,,,,,,,,,,,,
2017,06,29,09,10,00,117.1,,,,,,,,,,,,,,
2017,06,29,09,11,00,123.5,,,,,,,,,,,,,,
2017,06,29,09,12,00,135.6,,,,,,,,,,,,,,
2017,06,29,09,13,00,142.2,,,,,,,,,,,,,,
2017,06,29,09,14,00,178.8,,,,,,,,,,,,,,
2017,06,29,09,15,00,163.1,,,,,,,,,,,,,,
2017,06,29,09,16,00,206.1,,,,,,,,,,,,,,
2017,06,29,09,17,00,209.1,,,,,,,,,,,,,,
2017,06,29,09,18,00,248.3,,,,,,,,,,,,,,
2017,06,29,09,19,00,222.4,,,,,,,,,,,,,,
2017,06,29,09,20,00,190.5,,,,,,,,,,,,,,
2017,06,29,09,21,00,245.7,,,,,,,,,,,,,,
2017,06,29,09,22,00,266.9,,,,,,,,,,,,,,
2017,06,29,09,23,00,235.6,,,,,,,,,,,,,,
2017,06,29,09,24,00,224.5,,,,,,,,,,,,,,
2017,06,29,09,25,00,194.8,,,,,,,,,,,,,,
2017,06,29,09,26,00,174.8,,,,,,,,,,,,,,
2017,06,29,09,27,00,217.8,,,,,,,,,,,,,,
2017,06,29,09,28,00,223.4,,,,,,,,,,,,,,
2017,06,29,09,29,00,232.0,,,,,,,,,,,,,,
2017,06,29,09,30,00,201.4,,,,,,,,,,,,,,
2017,06,29,09,31,00,207.2,,,,,,,,,,,,,,
2017,06,29,09,32,00,205.8,,,,,,,,,,,,,,
2017,06,29,09,33,00,201.7,,,,,,,,,,,,,,
2017,06,29,09,34,00,213.6,,,,,,,,,,,,,,
2017,06,29,09,35,00,195.9,,,,,,,,,,,,,,
2017,06,29,09,36,00,178.5,,,,,,,,,,,,,,
2017,06,29,09,37,00,190.7,,,,,,,,,,,,,,
2017,06,29,09,38,00,172.1,,,,,,,,,,,,,,
2017,06,29,09,39,00,162.1,,,,,,,,,,,,,,
2017,06,29,09,40,00,157.8,,,,,,,,,,,,,,
2017,06,29,09,41,00,125.7,,,,,,,,,,,,,,